Time,TemperatureF,DewpointF,PressureIn,WindDirection,WindDirectionDegrees,WindSpeedMPH,WindSpeedGustMPH,Humidity,HourlyPrecipIn,Conditions,Clouds,dailyrainin,SoftwareType,DateUTC
2013-02-03 00:52:00,28.0,-99.9,30.01,North,351,-999.0,-999.0,-999,-99.99,,,-99.99,,2013-02-03 05:52:00,
2013-02-03 01:22:00,28.0,-99.9,30.01,North,351,-999.0,-999.0,-999,-99.99,,,-99.99,,2013-02-03 06:22:00,
2013-02-03 01:32:00,28.0,-99.9,30.01,North,351,-999.0,-999.0,-999,-99.99,,,-99.99,,2013-02-03 06:32:00,
2013-02-03 01:42:00,28.0,-99.9,30.01,North,351,-999.0,-999.0,-999,-99.99,,,-99.99,,2013-02-03 06:42:00,
2013-02-03 01:52:00,28.0,-99.9,29.99,North,351,-999.0,-999.0,-999,-99.99,,,-99.99,,2013-02-03 06:52:00,
2013-02-03 02:22:00,28.0,-99.9,29.99,North,351,-999.0,-999.0,-999,-99.99,,,-99.99,,2013-02-03 07:22:00,
2013-02-03 02:32:00,28.0,-99.9,29.99,North,351,-999.0,-999.0,-999,-99.99,,,-99.99,,2013-02-03 07:32:00,
2013-02-03 02:42:00,28.0,-99.9,29.99,North,351,-999.0,-999.0,-999,-99.99,,,-99.99,,2013-02-03 07:42:00,
2013-02-03 02:52:00,27.0,-99.9,29.96,North,351,-999.0,-999.0,-999,-99.99,,,-99.99,,2013-02-03 07:52:00,
2013-02-03 03:22:00,27.0,-99.9,29.96,North,351,-999.0,-999.0,-999,-99.99,,,-99.99,,2013-02-03 08:22:00,
2013-02-03 03:32:00,27.0,-99.9,29.96,North,351,-999.0,-999.0,-999,-99.99,,,-99.99,,2013-02-03 08:32:00,
2013-02-03 03:42:00,27.0,-99.9,29.96,North,351,-999.0,-999.0,-999,-99.99,,,-99.99,,2013-02-03 08:42:00,
2013-02-03 03:52:00,27.0,-99.9,29.93,North,351,-999.0,-999.0,-999,-99.99,,,-99.99,,2013-02-03 08:52:00,
2013-02-03 04:22:00,27.0,-99.9,29.93,North,351,-999.0,-999.0,-999,-99.99,,,-99.99,,2013-02-03 09:22:00,
2013-02-03 04:32:00,27.0,-99.9,29.93,North,351,-999.0,-999.0,-999,-99.99,,,-99.99,,2013-02-03 09:32:00,
2013-02-03 04:42:00,27.0,-99.9,29.93,North,351,-999.0,-999.0,-999,-99.99,,,-99.99,,2013-02-03 09:42:00,
2013-02-03 05:52:00,27.0,-99.9,29.93,North,351,-999.0,-999.0,-999,-99.99,,,-99.99,,2013-02-03 10:52:00,
2013-02-03 06:22:00,27.0,-99.9,29.93,North,351,-999.0,-999.0,-999,-99.99,,,-99.99,,2013-02-03 11:22:00,
2013-02-03 06:32:00,27.0,-99.9,29.93,North,351,-999.0,-999.0,-999,-99.99,,,-99.99,,2013-02-03 11:32:00,
2013-02-03 06:42:00,27.0,-99.9,29.93,North,351,-999.0,-999.0,-999,-99.99,,,-99.99,,2013-02-03 11:42:00,
2013-02-03 08:52:00,27.0,-99.9,29.94,North,351,-999.0,-999.0,-999,-99.99,,,-99.99,,2013-02-03 13:52:00,
2013-02-03 09:22:00,27.0,-99.9,29.94,North,351,-999.0,-999.0,-999,-99.99,,,-99.99,,2013-02-03 14:22:00,
2013-02-03 09:32:00,27.0,-99.9,29.94,North,351,-999.0,-999.0,-999,-99.99,,,-99.99,,2013-02-03 14:32:00,
2013-02-03 09:43:00,27.0,-99.9,29.94,North,351,-999.0,-999.0,-999,-99.99,,,-99.99,,2013-02-03 14:43:00,
2013-02-03 10:52:00,29.0,-99.9,29.91,North,-999,-999.0,8.0,-999,-99.99,,,-99.99,,2013-02-03 15:52:00,
2013-02-03 11:22:00,29.0,-99.9,29.91,North,-999,-999.0,8.0,-999,-99.99,,,-99.99,,2013-02-03 16:22:00,
2013-02-03 11:33:00,29.0,-99.9,29.91,North,-999,-999.0,8.0,-999,-99.99,,,-99.99,,2013-02-03 16:33:00,
2013-02-03 11:42:00,29.0,-99.9,29.91,North,-999,-999.0,8.0,-999,-99.99,,,-99.99,,2013-02-03 16:42:00,
2013-02-03 11:52:00,31.0,-99.9,29.87,SE,140,3.0,5.0,-999,-99.99,,,-99.99,,2013-02-03 16:52:00,
2013-02-03 12:22:00,31.0,-99.9,29.87,SE,140,3.0,5.0,-999,-99.99,,,-99.99,,2013-02-03 17:22:00,
2013-02-03 12:32:00,31.0,-99.9,29.87,SE,140,3.0,5.0,-999,-99.99,,,-99.99,,2013-02-03 17:32:00,
2013-02-03 12:42:00,31.0,-99.9,29.87,SE,140,3.0,5.0,-999,-99.99,,,-99.99,,2013-02-03 17:42:00,
2013-02-03 12:52:00,33.0,-99.9,29.84,NNE,31,2.0,10.0,-999,-99.99,,,-99.99,,2013-02-03 17:52:00,
2013-02-03 13:23:00,33.0,-99.9,29.84,NNE,31,2.0,10.0,-999,-99.99,,,-99.99,,2013-02-03 18:23:00,
2013-02-03 13:33:00,33.0,-99.9,29.84,NNE,31,2.0,10.0,-999,-99.99,,,-99.99,,2013-02-03 18:33:00,
2013-02-03 13:42:00,33.0,-99.9,29.84,NNE,31,2.0,10.0,-999,-99.99,,,-99.99,,2013-02-03 18:42:00,
2013-02-03 13:52:00,34.0,-99.9,29.82,North,-999,6.0,6.0,-999,-99.99,,,-99.99,,2013-02-03 18:52:00,
2013-02-03 14:22:00,34.0,-99.9,29.82,North,-999,6.0,6.0,-999,-99.99,,,-99.99,,2013-02-03 19:22:00,
2013-02-03 14:33:00,34.0,-99.9,29.82,North,-999,6.0,6.0,-999,-99.99,,,-99.99,,2013-02-03 19:33:00,
2013-02-03 14:42:00,34.0,-99.9,29.82,North,-999,6.0,6.0,-999,-99.99,,,-99.99,,2013-02-03 19:42:00,
2013-02-03 15:52:00,33.0,-99.9,29.82,North,-999,-999.0,8.0,-999,-99.99,,,-99.99,,2013-02-03 20:52:00,
2013-02-03 16:22:00,33.0,-99.9,29.82,North,-999,-999.0,8.0,-999,-99.99,,,-99.99,,2013-02-03 21:22:00,
2013-02-03 16:33:00,33.0,-99.9,29.82,North,-999,-999.0,8.0,-999,-99.99,,,-99.99,,2013-02-03 21:33:00,
2013-02-03 16:42:00,33.0,-99.9,29.82,North,-999,-999.0,8.0,-999,-99.99,,,-99.99,,2013-02-03 21:42:00,
2013-02-03 16:52:00,32.0,-99.9,29.82,North,-999,-999.0,6.0,-999,-99.99,,,-99.99,,2013-02-03 21:52:00,
2013-02-03 17:22:00,32.0,-99.9,29.82,North,-999,-999.0,6.0,-999,-99.99,,,-99.99,,2013-02-03 22:22:00,
2013-02-03 17:32:00,32.0,-99.9,29.82,North,-999,-999.0,6.0,-999,-99.99,,,-99.99,,2013-02-03 22:32:00,
2013-02-03 17:42:00,32.0,-99.9,29.82,North,-999,-999.0,6.0,-999,-99.99,,,-99.99,,2013-02-03 22:42:00,
2013-02-03 17:52:00,30.0,-99.9,29.83,NE,46,-999.0,-999.0,-999,-99.99,,,-99.99,,2013-02-03 22:52:00,
2013-02-03 18:22:00,30.0,-99.9,29.83,NE,46,-999.0,-999.0,-999,-99.99,,,-99.99,,2013-02-03 23:22:00,
2013-02-03 18:33:00,30.0,-99.9,29.83,NE,46,-999.0,-999.0,-999,-99.99,,,-99.99,,2013-02-03 23:33:00,
2013-02-03 18:42:00,30.0,-99.9,29.83,NE,46,-999.0,-999.0,-999,-99.99,,,-99.99,,2013-02-03 23:42:00,
2013-02-03 18:52:00,29.0,-99.9,29.84,NNE,27,-999.0,3.0,-999,-99.99,,,-99.99,,2013-02-03 23:52:00,
2013-02-03 19:22:00,29.0,-99.9,29.84,NNE,27,-999.0,3.0,-999,-99.99,,,-99.99,,2013-02-04 00:22:00,
2013-02-03 19:32:00,29.0,-99.9,29.84,NNE,27,-999.0,3.0,-999,-99.99,,,-99.99,,2013-02-04 00:32:00,
2013-02-03 19:42:00,29.0,-99.9,29.84,NNE,27,-999.0,3.0,-999,-99.99,,,-99.99,,2013-02-04 00:42:00,
2013-02-03 19:52:00,28.0,-99.9,29.85,ENE,73,-999.0,-999.0,-999,-99.99,,,-99.99,,2013-02-04 00:52:00,
2013-02-03 20:22:00,28.0,-99.9,29.85,ENE,73,-999.0,-999.0,-999,-99.99,,,-99.99,,2013-02-04 01:22:00,
2013-02-03 20:32:00,28.0,-99.9,29.85,ENE,73,-999.0,-999.0,-999,-99.99,,,-99.99,,2013-02-04 01:32:00,
2013-02-03 20:42:00,28.0,-99.9,29.85,ENE,73,-999.0,-999.0,-999,-99.99,,,-99.99,,2013-02-04 01:42:00,
2013-02-03 21:52:00,29.0,-99.9,29.86,North,-999,-999.0,5.0,-999,-99.99,,,-99.99,,2013-02-04 02:52:00,
2013-02-03 22:21:00,29.0,-99.9,29.86,North,-999,-999.0,5.0,-999,-99.99,,,-99.99,,2013-02-04 03:21:00,
2013-02-03 22:32:00,29.0,-99.9,29.86,North,-999,-999.0,5.0,-999,-99.99,,,-99.99,,2013-02-04 03:32:00,
2013-02-03 22:42:00,29.0,-99.9,29.86,North,-999,-999.0,5.0,-999,-99.99,,,-99.99,,2013-02-04 03:42:00,
2013-02-03 23:52:00,31.0,-99.9,29.87,North,-999,-999.0,20.0,-999,-99.99,,,-99.99,,2013-02-04 04:52:00,